Meteor-M No. 2

operational
NORAD ID: 40069 Int'l Des: 2014-037 Owner: RGMS/VNIIEMI Country: RU
LEOCIRCULARRETROGRADESSO

Über Meteor-M No. 2

Beschreibung wird geladen...

Live-Position

3D-Globus wird geladen...

Nächste Überflüge

Höhenverlauf

Altitude vs Time

uPlot chart will show altitude changes over time

Zweizeiliger Elementsatz

1 40069U 14037A 26062.62968223 .00000321 00000-0 16633-3 0 9996
2 40069 98.5010 42.1641 0005725 355.5690 4.5437 14.21426049604325
Epoch: 3. März 2026 • Age: 32 hours

Aktueller Status

Höhe 846.0 km
Geschwindigkeit 7.43 km/s
Subsatellitenpunkt -73.43°S, 155.94°E
Startdatum 8. Juli 2014
Alter 11.6 years
Typ other

Technische Details

Klassifizierung Payload
Masse 2879.00 kg
Trockenmasse 2600.00 kg
Gesamtmasse 2879.00 kg
Länge 6.50 m
Durchmesser 2.90 m
Spannweite 14.00 m
Form Cyl+panels
Hersteller VNIIEMI
Bus-Typ Resurs-O
Phasenstatus In Orbit
Besitzer/Staat RGMS/VNIIEMI/RU

Große Konstellationen

Loading constellations...